Stations météo

réclame
Mon MeteoGroup
Milford-Haven, Grande-Bretagne (3604): Température de l'air & dewpoint: 13.07.2018 14:00:00 - 19.07.2018 14:00:00 (BST)Milford-Haven, Grande-Bretagne (3604): Température de l'air -20cm & Température de l'air -100cm: 13.07.2018 14:00:00 - 19.07.2018 14:00:00 (BST)Milford-Haven, Grande-Bretagne (3604): Vitesse du vent: 13.07.2018 14:00:00 - 19.07.2018 14:00:00 (BST)Milford-Haven, Grande-Bretagne (3604): Direction du vent: 13.07.2018 14:00:00 - 19.07.2018 14:00:00 (BST)Milford-Haven, Grande-Bretagne (3604): reduced air pressure: 13.07.2018 14:00:00 - 19.07.2018 14:00:00 (BST)Milford-Haven, Grande-Bretagne (3604): visibility: 13.07.2018 14:00:00 - 19.07.2018 14:00:00 (BST)Milford-Haven, Grande-Bretagne (3604): Quantités de précipitations: 13.07.2018 14:00:00 - 19.07.2018 14:00:00 (BST)
Date & Time tt [°C] td [°C] tt -20cm [°C] tt -100cm [°C] ff [km/h] ff [knt] dd ppp [hPa] vv [km] rr [mm]
19.07.2018 14:00:00 22,0 13,3 - - 11 6 WSW 1019,6 50 0,0
19.07.2018 13:00:00 22,0 13,3 - - 11 6 WSW 1019,9 50 0,0
19.07.2018 12:00:00 21,2 12,7 - - 9 5 WSW 1020,0 50 0,0
19.07.2018 11:00:00 20,3 13,2 - - 8 4 WSW 1020,1 50 0,0
19.07.2018 10:00:00 17,8 12,2 19,5 19,0 5 3 S 1020,1 50 0,0
19.07.2018 09:00:00 17,2 12,5 - - 2 1 SSE 1020,1 50 0,0
19.07.2018 08:00:00 16,0 12,6 - - 4 2 E 1020,1 45 0,0
19.07.2018 07:00:00 12,7 11,0 - - 5 3 E 1020,1 35 0,0
19.07.2018 06:00:00 11,4 9,8 - - 8 4 ENE 1020,0 30 0,0
19.07.2018 05:00:00 11,7 10,0 - - 8 4 ENE 1020,1 40 0,0
19.07.2018 04:00:00 12,2 10,1 - - 5 3 E 1020,1 40 0,0
19.07.2018 03:00:00 12,2 10,0 - - 5 3 ENE 1020,1 30 0,0
19.07.2018 02:00:00 13,0 10,6 - - 5 3 NE 1020,2 50 0,0
19.07.2018 01:00:00 13,2 10,3 - - 4 2 WNW 1020,1 50 0,0
19.07.2018 00:00:00 13,2 10,3 - - 5 3 NW 1020,2 50 0,0
18.07.2018 23:00:00 13,0 10,2 - - 2 1 WNW 1020,2 50 0,0
18.07.2018 22:00:00 13,9 10,7 - - 4 2 WNW 1020,2 50 0,0
18.07.2018 21:00:00 15,7 10,8 - - 5 3 W 1019,7 50 0,0
18.07.2018 20:00:00 17,0 12,3 - - 11 6 W 1019,6 50 0,0
18.07.2018 19:00:00 17,8 13,0 - - 13 7 W 1019,3 50 0,0
18.07.2018 18:00:00 18,6 12,8 - - 13 7 W 1019,0 50 0,0
18.07.2018 17:00:00 19,6 13,2 - - 15 8 W 1019,0 50 0,0
18.07.2018 16:00:00 20,0 12,6 - - 15 8 W 1018,9 50 0,0
18.07.2018 15:00:00 20,5 14,7 - - 13 7 WSW 1018,8 40 0,0
18.07.2018 14:00:00 20,0 13,8 - - 13 7 WSW 1018,4 40 0,0
18.07.2018 13:00:00 20,2 14,7 - - 13 7 W 1018,2 45 0,0
18.07.2018 12:00:00 18,8 14,6 - - 13 7 W 1018,1 35 0,0
18.07.2018 11:00:00 20,2 13,7 - - 11 6 WSW 1017,8 50 0,0
18.07.2018 10:00:00 19,4 13,7 19,7 19,0 8 4 SW 1017,7 50 0,0
18.07.2018 09:00:00 17,8 13,8 - - 5 3 WSW 1017,5 45 0,0
18.07.2018 08:00:00 16,4 13,8 - - 9 5 SSW 1017,2 40 0,0
18.07.2018 07:00:00 15,8 13,5 - - 9 5 SSW 1016,7 30 0,0
18.07.2018 06:00:00 14,6 13,0 - - 8 4 WSW 1016,5 35 0,0
18.07.2018 05:00:00 15,4 14,5 - - 4 2 SSE 1016,4 29 0,0
18.07.2018 04:00:00 15,3 14,5 - - 4 2 ESE 1016,3 27 0,0
18.07.2018 03:00:00 14,9 13,9 - - 2 1 ENE 1016,3 30 0,0
18.07.2018 02:00:00 15,5 14,4 - - 2 1 E 1016,4 30 0,0
18.07.2018 01:00:00 15,4 14,3 - - 4 2 E 1016,6 35 0,0
18.07.2018 00:00:00 15,4 14,3 - - 5 3 ESE 1016,7 40 0,0
17.07.2018 23:00:00 14,9 14,2 - - 2 1 SE 1016,8 45 0,0
17.07.2018 22:00:00 15,0 14,0 - - 8 4 S 1016,8 19 0,0
17.07.2018 21:00:00 15,7 13,9 - - 11 6 SW 1016,7 30 0,0
17.07.2018 20:00:00 17,2 13,1 - - 11 6 SSW 1016,4 50 0,0
17.07.2018 19:00:00 17,3 13,0 - - 13 7 SSW 1016,2 50 0,0
17.07.2018 18:00:00 18,2 13,3 - - 15 8 SSW 1016,3 50 0,0
17.07.2018 17:00:00 18,4 13,2 - - 15 8 SSW 1016,4 50 0,0
17.07.2018 16:00:00 18,1 12,4 - - 15 8 SSW 1016,7 50 0,0
17.07.2018 15:00:00 17,9 13,5 - - 11 6 S 1016,8 50 0,0
17.07.2018 14:00:00 17,9 12,1 - - 11 6 SSW 1016,9 50 0,0
17.07.2018 13:00:00 19,2 11,0 - - 8 4 WSW 1016,9 50 0,0
17.07.2018 12:00:00 18,9 11,9 - - 8 4 WSW 1016,7 50 0,0
17.07.2018 11:00:00 17,1 11,1 - - 5 3 WSW 1016,6 50 0,0
17.07.2018 10:00:00 17,3 12,3 19,7 19,2 5 3 WSW 1016,4 50 0,0
17.07.2018 09:00:00 15,8 12,3 - - 9 5 NW 1016,3 50 0,0
17.07.2018 08:00:00 14,5 11,7 - - 13 7 NW 1016,2 50 0,0
17.07.2018 07:00:00 14,1 12,4 - - 11 6 NW 1015,9 50 0,0
17.07.2018 06:00:00 13,8 12,9 - - 5 3 N 1015,4 22 0,0
17.07.2018 05:00:00 13,6 12,7 - - 8 4 NNW 1014,9 35 0,0
17.07.2018 04:00:00 14,4 13,8 - - 0 0 N 1015,1 27 0,0
17.07.2018 03:00:00 13,4 12,7 - - 4 2 W 1015,1 29 0,0
17.07.2018 02:00:00 13,8 12,9 - - 11 6 W 1015,3 30 0,0
17.07.2018 01:00:00 13,8 12,9 - - 9 5 W 1015,6 30 0,0
17.07.2018 00:00:00 13,6 12,5 - - 11 6 W 1015,8 35 0,0
16.07.2018 23:00:00 13,8 12,3 - - 11 6 W 1015,8 35 0,0
16.07.2018 22:00:00 14,4 12,7 - - 11 6 WNW 1015,7 40 0,0
16.07.2018 21:00:00 15,8 12,9 - - 11 6 W 1015,3 50 0,0
16.07.2018 20:00:00 16,3 13,2 - - 11 6 W 1015,1 50 0,0
16.07.2018 19:00:00 16,6 13,2 - - 11 6 W 1014,7 45 0,0
16.07.2018 18:00:00 17,3 13,6 - - 13 7 W 1014,7 50 0,0
16.07.2018 17:00:00 18,0 13,0 - - 18 10 W 1014,7 45 0,0
16.07.2018 16:00:00 18,4 13,1 - - 18 10 W 1014,6 45 0,0
16.07.2018 15:00:00 17,7 14,1 - - 15 8 WNW 1014,4 50 0,0
16.07.2018 14:00:00 17,0 14,2 - - 24 13 NNW 1014,0 35 0,0
16.07.2018 13:00:00 18,1 16,0 - - 18 10 WNW 1013,8 30 0,0
16.07.2018 12:00:00 18,0 17,5 - - 11 6 W 1013,3 40 0,2
16.07.2018 11:00:00 16,0 15,6 - - 11 6 NW 1013,3 9 4,0
16.07.2018 10:00:00 16,5 16,0 20,2 19,0 11 6 WSW 1013,2 3,8 5,4
16.07.2018 09:00:00 16,7 16,1 - - 5 3 WSW 1013,1 1,9 4,2
16.07.2018 08:00:00 17,2 16,3 - - 9 5 SSE 1013,3 8 0,2
16.07.2018 07:00:00 16,4 15,6 - - 2 1 SSE 1013,4 28 0,0
16.07.2018 06:00:00 16,7 15,9 - - 11 6 SW 1013,6 17 0,0
16.07.2018 05:00:00 16,4 15,7 - - 9 5 S 1013,7 16 0,0
16.07.2018 04:00:00 16,7 15,7 - - 9 5 SSW 1014,1 16 0,0
16.07.2018 03:00:00 17,3 16,0 - - 11 6 SSW 1014,3 14 0,0
16.07.2018 02:00:00 17,1 15,8 - - 13 7 SSW 1014,8 20 0,0
16.07.2018 01:00:00 17,1 16,0 - - 11 6 SSW 1015,0 22 0,0
16.07.2018 00:00:00 17,0 16,1 - - 11 6 SSW 1015,2 20 0,0
15.07.2018 23:00:00 17,0 15,9 - - 11 6 SSW 1015,1 18 0,0
15.07.2018 22:00:00 17,5 16,0 - - 13 7 SSW 1015,1 22 0,0
15.07.2018 21:00:00 18,0 15,9 - - 13 7 SW 1014,8 27 0,0
15.07.2018 20:00:00 18,7 15,8 - - 13 7 SW 1014,9 35 0,0
15.07.2018 19:00:00 19,1 15,8 - - 13 7 SW 1015,2 35 0,0
15.07.2018 18:00:00 19,7 16,1 - - 16 9 SSW 1015,5 40 0,0
15.07.2018 17:00:00 20,8 16,1 - - 18 10 SSW 1015,7 35 0,0
15.07.2018 16:00:00 21,3 16,4 - - 21 11 SSW 1016,1 40 0,0
15.07.2018 15:00:00 21,3 16,3 - - 21 11 SSW 1016,0 40 0,0
15.07.2018 14:00:00 21,8 16,2 - - 22 12 SSW 1016,3 45 0,0
15.07.2018 13:00:00 21,4 16,2 - - 24 13 SSW 1016,6 45 0,0
15.07.2018 12:00:00 20,5 16,4 - - 24 13 SSW 1016,8 35 0,0
15.07.2018 11:00:00 21,1 16,4 - - 21 11 SSW 1016,8 40 0,0
15.07.2018 10:00:00 19,4 16,1 20,0 19,0 18 10 S 1016,7 35 0,0
15.07.2018 09:00:00 18,8 15,9 - - 16 9 S 1017,0 35 0,0
15.07.2018 08:00:00 17,9 16,1 - - 13 7 SSW 1017,0 28 0,0
15.07.2018 07:00:00 16,3 15,8 - - 8 4 S 1017,0 17 0,0
15.07.2018 06:00:00 15,1 14,5 - - 8 4 S 1017,0 15 0,0
15.07.2018 05:00:00 15,3 14,6 - - 4 2 S 1017,2 17 0,0
15.07.2018 04:00:00 15,4 14,7 - - 4 2 SW 1017,6 26 0,0
15.07.2018 03:00:00 15,4 14,7 - - 2 1 SW 1017,9 24 0,0
15.07.2018 02:00:00 15,6 14,7 - - 4 2 SW 1018,1 2,8 0,0
15.07.2018 01:00:00 15,7 14,8 - - 5 3 S 1018,5 21 0,0
15.07.2018 00:00:00 15,9 15,0 - - 8 4 SSW 1018,6 21 0,0
14.07.2018 23:00:00 15,8 14,7 - - 5 3 SSW 1018,9 28 0,0
14.07.2018 22:00:00 16,5 14,7 - - 9 5 SSW 1019,0 35 0,0
14.07.2018 21:00:00 17,4 14,7 - - 8 4 SW 1019,0 50 0,0
14.07.2018 20:00:00 18,1 14,6 - - 9 5 W 1019,3 50 0,0
14.07.2018 19:00:00 19,0 14,6 - - 13 7 W 1019,5 50 0,0
14.07.2018 18:00:00 20,5 14,1 - - 15 8 WSW 1019,7 50 0,0
14.07.2018 17:00:00 21,4 13,9 - - 16 9 W 1019,8 50 0,0
14.07.2018 16:00:00 21,0 14,0 - - 13 7 SW 1020,1 50 0,0
14.07.2018 15:00:00 22,3 15,0 - - 9 5 SW 1020,4 50 0,0
14.07.2018 14:00:00 20,6 13,7 - - 13 7 W 1020,8 50 0,0
14.07.2018 13:00:00 22,4 14,7 - - 13 7 WSW 1020,8 50 0,0
14.07.2018 12:00:00 22,3 15,4 - - 11 6 W 1020,9 50 0,0
14.07.2018 11:00:00 21,5 15,6 - - 8 4 WSW 1021,2 50 0,0
14.07.2018 10:00:00 19,6 16,0 19,7 19,0 11 6 SSW 1021,3 50 0,0
14.07.2018 09:00:00 17,4 14,7 - - 8 4 SE 1021,3 25 0,0
14.07.2018 08:00:00 15,6 13,4 - - 5 3 ESE 1021,4 24 0,0
14.07.2018 07:00:00 13,9 12,5 - - 8 4 ESE 1021,3 18 0,0
14.07.2018 06:00:00 12,8 11,8 - - 5 3 E 1021,4 16 0,0
14.07.2018 05:00:00 13,0 11,7 - - 8 4 E 1021,5 16 0,0
14.07.2018 04:00:00 12,8 10,9 - - 2 1 SE 1021,8 28 0,0
14.07.2018 03:00:00 13,6 11,6 - - 0 0 N 1022,0 25 0,0
14.07.2018 02:00:00 14,0 11,2 - - 8 4 N 1022,1 30 0,0
14.07.2018 01:00:00 13,9 10,9 - - 8 4 NNE 1022,4 30 0,0
14.07.2018 00:00:00 14,1 10,9 - - 9 5 NNE 1022,5 30 0,0
13.07.2018 23:00:00 14,6 11,5 - - 9 5 NNW 1022,5 35 0,0
13.07.2018 22:00:00 15,0 11,4 - - 11 6 NW 1022,4 40 0,0
13.07.2018 21:00:00 16,5 11,4 - - 9 5 NW 1022,0 50 0,0
13.07.2018 20:00:00 17,7 11,6 - - 18 10 NW 1022,0 50 0,0
13.07.2018 19:00:00 19,0 11,6 - - 21 11 NW 1021,8 50 0,0
13.07.2018 18:00:00 20,1 11,8 - - 22 12 NW 1021,7 50 0,0
13.07.2018 17:00:00 22,2 11,9 - - 18 10 WNW 1021,5 50 0,0
13.07.2018 16:00:00 22,0 12,0 - - 18 10 NW 1021,9 50 0,0
13.07.2018 15:00:00 21,8 12,2 - - 21 11 NNW 1022,0 50 0,0
13.07.2018 14:00:00 22,2 12,7 - - 21 11 NW 1022,1 50 0,0

tt = Température de l'air
td = dewpoint
tt -20cm = Température de l'air -20cm
tt -100cm = Température de l'air -100cm
ff = Vitesse du vent
dd = Direction du vent
ppp = reduced air pressure
vv = visibility
rr = Quantités de précipitations

stations d'obs. à proximité